GOES 18

Last updated on Fri Oct 31 2025 00:02:21 GMT+0000 (Coordinated Universal Time)

1 51850U 22021A 25303.31326756 .00000106 00000+0 00000+0 0 9997 2 51850 0.0502 70.7452 0000416 194.4957 109.4462 1.00271062 4282
UTC large
Height (km)
Speed (km/s)
/
Latitude / Longitude
Inclination (degrees)
Orbital Period (minutes)
Azimuth
Elevation
Range (km)
Doppler Factor

Next 0 passes for location: London (51.5072 / 0.1276)

Sorry there are no passes over London.